StationID,Date,MaxTemp,MinTemp,Precipitation,Snowfall,SnowDepth
"USC00504943","1951-07-20",71.06,46.94,18.00,0.00,0.00
"USC00504943","1951-07-21",69.08,51.08,0.00,0.00,0.00
"USC00504943","1951-07-22",66.02,51.08,0.00,0.00,0.00
"USC00504943","1951-07-23",69.08,46.04,10.00,0.00,0.00
"USC00504943","1951-07-24",66.92,44.96,0.00,0.00,0.00
"USC00504943","1951-07-25",69.08,46.04,0.00,0.00,0.00
"USC00504943","1951-07-26",69.98,46.04,0.00,0.00,0.00
"USC00504943","1951-07-27",62.96,51.08,0.00,0.00,0.00
"USC00504943","1951-07-28",62.96,48.92,0.00,0.00,0.00
"USC00504943","1951-07-29",62.06,48.02,81.00,0.00,0.00
"USC00504943","1951-07-30",60.98,48.02,89.00,0.00,0.00
"USC00504943","1951-07-31",66.92,41.00,0.00,0.00,0.00
"USC00504943","1951-08-01",68.00,46.04,0.00,0.00,0.00
"USC00504943","1951-08-02",66.92,51.08,0.00,0.00,0.00
"USC00504943","1951-08-03",64.04,50.00,0.00,0.00,0.00
"USC00504943","1951-08-04",57.92,50.00,13.00,0.00,0.00
"USC00504943","1951-08-05",60.98,48.02,30.00,0.00,0.00
"USC00504943","1951-08-06",71.96,46.04,0.00,0.00,0.00
"USC00504943","1951-08-07",73.94,50.00,188.00,0.00,0.00
"USC00504943","1951-08-08",66.92,48.02,0.00,0.00,0.00
"USC00504943","1951-08-09",69.98,44.96,0.00,0.00,0.00
"USC00504943","1951-08-10",66.92,46.04,0.00,0.00,0.00
"USC00504943","1951-08-11",64.04,50.00,0.00,0.00,0.00
"USC00504943","1951-08-12",71.96,46.04,0.00,0.00,0.00
"USC00504943","1951-08-13",71.96,50.00,0.00,0.00,0.00
"USC00504943","1951-08-14",64.04,51.08,18.00,0.00,0.00
"USC00504943","1951-08-15",62.06,51.98,5.00,0.00,0.00
"USC00504943","1951-08-16",66.92,46.04,0.00,0.00,0.00
"USC00504943","1951-08-17",64.04,50.00,86.00,0.00,0.00
"USC00504943","1951-08-18",66.02,46.94,15.00,0.00,0.00
"USC00504943","1951-08-19",62.06,46.04,0.00,0.00,0.00
"USC00504943","1951-08-20",64.94,44.06,0.00,0.00,0.00
"USC00504943","1951-08-21",59.00,48.92,20.00,0.00,0.00
"USC00504943","1951-08-22",55.94,48.02,46.00,0.00,0.00
"USC00504943","1951-08-23",62.06,48.92,0.00,0.00,0.00
"USC00504943","1951-08-24",55.04,41.00,0.00,0.00,0.00
"USC00504943","1951-08-25",53.96,44.96,122.00,0.00,0.00
"USC00504943","1951-08-26",53.96,46.94,97.00,0.00,0.00
"USC00504943","1951-08-27",62.96,51.08,81.00,0.00,0.00
"USC00504943","1951-08-28",64.04,53.06,0.00,0.00,0.00
"USC00504943","1951-08-29",62.06,53.06,51.00,0.00,0.00
"USC00504943","1951-08-30",64.04,51.98,0.00,0.00,0.00
"USC00504943","1951-08-31",60.08,44.96,0.00,0.00,0.00
"USC00504943","1951-09-01",59.00,48.92,33.00,0.00,0.00
"USC00504943","1951-09-02",62.06,48.02,84.00,0.00,0.00
"USC00504943","1951-09-03",57.02,48.92,61.00,0.00,0.00
"USC00504943","1951-09-04",55.94,50.00,330.00,0.00,0.00
"USC00504943","1951-09-05",60.08,42.98,13.00,0.00,0.00
"USC00504943","1951-09-06",66.02,46.94,28.00,0.00,0.00
"USC00504943","1951-09-07",55.04,35.96,3.00,0.00,0.00
"USC00504943","1951-09-08",55.04,44.06,20.00,0.00,0.00
"USC00504943","1951-09-09",57.92,44.06,0.00,0.00,0.00
"USC00504943","1951-09-10",53.06,35.96,0.00,0.00,0.00
"USC00504943","1951-09-11",57.02,42.98,99.00,0.00,0.00
"USC00504943","1951-09-12",62.06,37.94,0.00,0.00,0.00
"USC00504943","1951-09-13",51.08,39.02,0.00,0.00,0.00
"USC00504943","1951-09-14",51.98,37.04,0.00,0.00,0.00
"USC00504943","1951-09-15",53.96,33.98,0.00,0.00,0.00
"USC00504943","1951-09-16",57.92,44.96,5.00,0.00,0.00
"USC00504943","1951-09-17",57.92,50.00,36.00,0.00,0.00
"USC00504943","1951-09-18",53.96,48.02,216.00,0.00,0.00
"USC00504943","1951-09-19",51.98,39.02,71.00,0.00,0.00
"USC00504943","1951-09-20",62.06,44.96,20.00,0.00,0.00
"USC00504943","1951-09-21",57.92,46.04,0.00,0.00,0.00
"USC00504943","1951-09-22",57.92,46.04,124.00,0.00,0.00
"USC00504943","1951-09-23",66.92,39.92,0.00,0.00,0.00
"USC00504943","1951-09-24",60.98,33.98,0.00,0.00,0.00
"USC00504943","1951-09-25",50.00,32.00,0.00,0.00,0.00
"USC00504943","1951-09-26",51.98,39.92,0.00,0.00,0.00
"USC00504943","1951-09-27",51.98,33.98,0.00,0.00,0.00
"USC00504943","1951-09-28",50.00,33.98,0.00,0.00,0.00
"USC00504943","1951-09-29",44.96,26.96,0.00,0.00,0.00
"USC00504943","1951-09-30",46.04,28.94,0.00,0.00,0.00
"USC00504943","1951-10-01",51.98,37.94,25.00,0.00,0.00
"USC00504943","1951-10-02",51.98,32.00,0.00,0.00,0.00
"USC00504943","1951-10-03",46.94,35.96,18.00,0.00,0.00
"USC00504943","1951-10-04",42.08,32.00,160.00,0.00,0.00
"USC00504943","1951-10-05",37.04,30.92,25.00,0.00,0.00
"USC00504943","1951-10-06",37.04,32.00,23.00,0.00,0.00
"USC00504943","1951-10-07",35.06,26.96,5.00,0.00,0.00
"USC00504943","1951-10-08",33.08,23.00,0.00,0.00,0.00
"USC00504943","1951-10-09",32.00,15.98,0.00,0.00,0.00
"USC00504943","1951-10-10",42.08,26.96,0.00,0.00,0.00
"USC00504943","1951-10-11",35.96,26.96,18.00,0.00,0.00
"USC00504943","1951-10-12",37.04,26.06,0.00,0.00,0.00
"USC00504943","1951-10-13",42.98,24.08,0.00,0.00,0.00
"USC00504943","1951-10-14",39.02,17.96,0.00,0.00,0.00
"USC00504943","1951-10-15",46.94,14.00,0.00,0.00,0.00
"USC00504943","1951-10-16",42.98,17.96,0.00,0.00,0.00
"USC00504943","1951-10-17",46.94,21.02,0.00,0.00,0.00
"USC00504943","1951-10-18",42.08,26.06,0.00,0.00,0.00
"USC00504943","1951-10-19",37.04,21.02,0.00,0.00,0.00
"USC00504943","1951-10-20",37.04,12.02,0.00,0.00,0.00
"USC00504943","1951-10-21",37.94,15.98,0.00,0.00,0.00
"USC00504943","1951-10-22",37.94,15.08,0.00,0.00,0.00
"USC00504943","1951-10-23",37.04,10.94,0.00,0.00,0.00
"USC00504943","1951-10-24",44.96,19.04,0.00,0.00,0.00
"USC00504943","1951-10-25",48.92,35.06,0.00,0.00,0.00
"USC00504943","1951-10-26",44.96,30.92,0.00,0.00,0.00
"USC00504943","1951-10-27",37.94,28.94,0.00,0.00,0.00
"USC00504943","1951-10-28",35.06,30.02,0.00,0.00,0.00
"USC00504943","1951-10-29",32.00,26.96,0.00,0.00,0.00
"USC00504943","1951-10-30",30.02,17.96,0.00,0.00,0.00
"USC00504943","1951-10-31",35.96,21.92,13.00,0.00,0.00
"USC00504943","1951-11-01",48.92,35.06,25.00,,0.00
"USC00504943","1951-11-02",46.94,32.00,15.00,,0.00
"USC00504943","1951-11-03",35.96,28.04,0.00,,0.00
"USC00504943","1951-11-04",35.96,24.08,8.00,,0.00
"USC00504943","1951-11-05",41.00,30.02,0.00,,0.00
"USC00504943","1951-11-06",37.04,32.00,0.00,,
"USC00504943","1951-11-07",37.94,30.02,20.00,,
"USC00504943","1951-11-08",37.04,30.02,0.00,,
"USC00504943","1951-11-09",35.96,30.02,0.00,,
"USC00504943","1951-11-10",37.04,30.92,0.00,,0.00
"USC00504943","1951-11-11",35.96,30.02,0.00,,0.00
"USC00504943","1951-11-12",35.06,17.96,8.00,,0.00
"USC00504943","1951-11-13",26.96,6.08,0.00,,0.00
"USC00504943","1951-11-14",21.02,3.02,0.00,,0.00
"USC00504943","1951-11-15",17.96,-0.94,0.00,,0.00
"USC00504943","1951-11-16",17.96,-0.04,0.00,,0.00
"USC00504943","1951-11-17",12.02,-2.02,0.00,,0.00
"USC00504943","1951-11-18",12.92,-2.92,0.00,,0.00
"USC00504943","1951-11-19",17.06,-2.92,0.00,,0.00
"USC00504943","1951-11-20",28.04,15.08,0.00,,0.00
"USC00504943","1951-11-21",33.08,26.06,0.00,,0.00
"USC00504943","1951-11-22",33.98,30.92,5.00,,0.00
"USC00504943","1951-11-23",33.98,28.94,18.00,,51.00
"USC00504943","1951-11-24",37.94,28.04,0.00,,
"USC00504943","1951-11-25",33.08,26.06,0.00,,
"USC00504943","1951-11-26",32.00,19.94,0.00,,
"USC00504943","1951-11-27",32.00,15.08,0.00,,
"USC00504943","1951-11-28",21.92,5.00,0.00,,
"USC00504943","1951-11-29",14.00,1.94,0.00,,
"USC00504943","1951-11-30",17.06,6.98,0.00,,25.00
"USC00504943","1951-12-01",14.00,1.94,0.00,0.00,
"USC00504943","1951-12-02",14.00,-2.02,0.00,0.00,
"USC00504943","1951-12-03",17.96,8.06,53.00,114.00,152.00
"USC00504943","1951-12-04",19.94,5.00,0.00,0.00,
"USC00504943","1951-12-05",8.06,-9.94,5.00,0.00,
"USC00504943","1951-12-06",-4.00,-16.96,0.00,0.00,
"USC00504943","1951-12-07",-9.94,-18.94,0.00,0.00,
"USC00504943","1951-12-08",5.00,-23.08,0.00,0.00,
"USC00504943","1951-12-09",19.04,3.92,20.00,25.00,
"USC00504943","1951-12-10",30.02,17.06,0.00,0.00,
"USC00504943","1951-12-11",37.94,24.08,0.00,0.00,
"USC00504943","1951-12-12",30.02,5.00,0.00,0.00,
"USC00504943","1951-12-13",19.94,1.04,0.00,0.00,
"USC00504943","1951-12-14",21.92,6.98,0.00,0.00,
"USC00504943","1951-12-15",19.94,-7.06,0.00,0.00,
"USC00504943","1951-12-16",-4.00,-14.08,0.00,0.00,
"USC00504943","1951-12-17",-5.08,-16.96,0.00,0.00,
"USC00504943","1951-12-18",17.06,-14.08,0.00,0.00,
"USC00504943","1951-12-19",28.04,14.00,38.00,84.00,
"USC00504943","1951-12-20",30.02,15.98,0.00,0.00,
"USC00504943","1951-12-21",28.04,14.00,0.00,0.00,
"USC00504943","1951-12-22",26.06,17.06,33.00,51.00,
"USC00504943","1951-12-23",26.06,17.06,0.00,0.00,
"USC00504943","1951-12-24",19.94,-0.04,0.00,0.00,
"USC00504943","1951-12-25",12.02,-0.94,0.00,0.00,
"USC00504943","1951-12-26",8.06,-2.02,0.00,0.00,
"USC00504943","1951-12-27",12.02,-2.02,0.00,0.00,
"USC00504943","1951-12-28",15.08,1.04,0.00,0.00,
"USC00504943","1951-12-29",6.98,-5.08,0.00,0.00,
"USC00504943","1951-12-30",19.94,3.02,10.00,0.00,
"USC00504943","1951-12-31",21.92,10.04,74.00,76.00,254.00
"USC00504943","1952-01-01",30.02,10.04,0.00,0.00,
"USC00504943","1952-01-02",19.94,8.06,0.00,0.00,
"USC00504943","1952-01-03",30.02,17.96,0.00,0.00,
"USC00504943","1952-01-04",23.00,10.04,0.00,0.00,
"USC00504943","1952-01-05",15.98,-2.02,0.00,0.00,
"USC00504943","1952-01-06",8.06,-0.94,0.00,0.00,
"USC00504943","1952-01-07",6.98,-13.00,0.00,0.00,
"USC00504943","1952-01-08",8.96,-18.04,0.00,0.00,
"USC00504943","1952-01-09",12.02,-9.94,0.00,0.00,
"USC00504943","1952-01-10",3.92,-9.94,0.00,0.00,
"USC00504943","1952-01-11",5.00,-14.98,0.00,0.00,
"USC00504943","1952-01-12",12.02,1.94,203.00,254.00,
"USC00504943","1952-01-13",14.00,-5.08,0.00,0.00,
"USC00504943","1952-01-14",5.00,-11.02,0.00,0.00,
"USC00504943","1952-01-15",12.02,-0.94,0.00,0.00,
"USC00504943","1952-01-16",26.06,8.96,163.00,203.00,
"USC00504943","1952-01-17",,,0.00,0.00,
"USC00504943","1952-01-18",21.02,-4.00,0.00,0.00,
"USC00504943","1952-01-19",10.04,-5.08,0.00,0.00,
"USC00504943","1952-01-20",6.98,-22.00,0.00,0.00,
"USC00504943","1952-01-21",8.06,-11.92,0.00,0.00,
"USC00504943","1952-01-22",-0.94,-18.04,0.00,0.00,
"USC00504943","1952-01-23",-2.02,-23.08,0.00,0.00,
"USC00504943","1952-01-24",12.02,-18.04,0.00,0.00,
"USC00504943","1952-01-25",17.96,-0.94,0.00,0.00,
"USC00504943","1952-01-26",14.00,-7.06,0.00,0.00,
"USC00504943","1952-01-27",26.96,12.02,0.00,0.00,
"USC00504943","1952-01-28",28.04,14.00,0.00,0.00,
"USC00504943","1952-01-29",24.98,10.94,0.00,0.00,
"USC00504943","1952-01-30",19.94,-2.02,0.00,0.00,
"USC00504943","1952-01-31",19.94,-0.94,0.00,0.00,457.00
"USC00504943","1952-02-01",17.96,10.94,25.00,51.00,508.00
"USC00504943","1952-02-02",19.04,12.92,0.00,0.00,508.00
"USC00504943","1952-02-03",19.94,-0.94,0.00,0.00,483.00
"USC00504943","1952-02-04",19.94,-5.08,0.00,0.00,483.00
"USC00504943","1952-02-05",26.96,1.04,0.00,0.00,457.00
"USC00504943","1952-02-06",28.94,10.04,0.00,0.00,457.00
"USC00504943","1952-02-07",37.04,10.94,0.00,0.00,432.00
"USC00504943","1952-02-08",35.96,19.94,0.00,0.00,406.00
"USC00504943","1952-02-09",30.92,21.92,0.00,0.00,406.00
"USC00504943","1952-02-10",28.04,15.08,0.00,0.00,406.00
"USC00504943","1952-02-11",21.92,8.06,0.00,0.00,406.00
"USC00504943","1952-02-12",17.96,1.04,0.00,0.00,381.00
"USC00504943","1952-02-13",39.02,10.94,0.00,0.00,381.00
"USC00504943","1952-02-14",30.02,14.00,0.00,0.00,381.00
"USC00504943","1952-02-15",24.98,3.02,0.00,0.00,381.00
"USC00504943","1952-02-16",17.96,-9.04,0.00,0.00,381.00
"USC00504943","1952-02-17",14.00,-9.94,0.00,0.00,381.00
"USC00504943","1952-02-18",17.06,3.02,18.00,25.00,406.00
"USC00504943","1952-02-19",21.92,6.98,5.00,0.00,406.00
"USC00504943","1952-02-20",30.02,15.08,0.00,0.00,381.00
"USC00504943","1952-02-21",35.96,15.08,0.00,0.00,381.00
"USC00504943","1952-02-22",42.08,24.98,0.00,0.00,381.00
"USC00504943","1952-02-23",37.04,12.02,0.00,0.00,381.00
"USC00504943","1952-02-24",33.98,17.06,0.00,0.00,356.00
"USC00504943","1952-02-25",32.00,24.08,53.00,76.00,432.00
"USC00504943","1952-02-26",39.92,23.00,0.00,0.00,406.00
"USC00504943","1952-02-27",35.06,15.08,0.00,0.00,381.00
"USC00504943","1952-02-28",44.06,24.98,0.00,0.00,305.00
"USC00504943","1952-02-29",33.98,14.00,0.00,0.00,305.00
"USC00504943","1952-03-01",33.08,26.06,66.00,76.00,432.00
"USC00504943","1952-03-02",33.08,24.08,0.00,0.00,432.00
"USC00504943","1952-03-03",30.02,6.08,0.00,0.00,406.00
"USC00504943","1952-03-04",21.92,12.92,8.00,8.00,406.00
"USC00504943","1952-03-05",24.08,15.08,5.00,5.00,406.00
"USC00504943","1952-03-06",19.94,12.02,0.00,0.00,381.00
"USC00504943","1952-03-07",33.98,15.98,0.00,0.00,381.00
"USC00504943","1952-03-08",37.94,24.98,58.00,76.00,457.00
"USC00504943","1952-03-09",37.04,19.94,0.00,0.00,432.00
"USC00504943","1952-03-10",33.08,8.06,0.00,0.00,432.00
"USC00504943","1952-03-11",41.00,26.96,0.00,0.00,406.00
"USC00504943","1952-03-12",42.08,19.94,0.00,0.00,406.00
"USC00504943","1952-03-13",37.94,12.02,0.00,0.00,406.00
"USC00504943","1952-03-14",35.96,17.96,0.00,0.00,406.00
"USC00504943","1952-03-15",37.94,17.06,0.00,0.00,381.00
"USC00504943","1952-03-16",35.06,8.96,0.00,0.00,381.00
"USC00504943","1952-03-17",35.96,8.06,0.00,0.00,381.00
"USC00504943","1952-03-18",30.02,6.98,0.00,0.00,381.00
"USC00504943","1952-03-19",32.00,5.00,0.00,0.00,381.00
"USC00504943","1952-03-20",39.02,12.92,0.00,0.00,381.00
"USC00504943","1952-03-21",46.04,32.00,0.00,0.00,356.00
"USC00504943","1952-03-22",41.00,30.92,0.00,0.00,356.00
"USC00504943","1952-03-23",46.94,32.00,5.00,0.00,305.00
"USC00504943","1952-03-24",42.08,26.06,0.00,0.00,305.00
"USC00504943","1952-03-25",39.92,26.96,56.00,76.00,381.00
"USC00504943","1952-03-26",37.94,24.08,5.00,0.00,356.00
"USC00504943","1952-03-27",35.96,15.98,51.00,25.00,381.00
"USC00504943","1952-03-28",21.92,5.00,5.00,5.00,381.00
"USC00504943","1952-03-29",21.02,-9.94,0.00,0.00,356.00
"USC00504943","1952-03-30",24.08,-4.00,0.00,0.00,356.00
"USC00504943","1952-03-31",24.98,6.98,0.00,0.00,356.00
